Flag for Switzerland Weather past 2 weeks in Pratteln, Basel-Land, Switzerland

Now
45 °F

Sunny.


Feels Like: 45 °F
Forecast: 38 / 69 °F
Wind: 1 mph from North

Location: Bale-Mulhouse

Current Time: Apr 21, 2015 at 9:11:27 AM

Latest Report: Apr 21, 2015 at 8:30 AM


Visibility: 10 mi

Pressure: 30.36 "Hg

Humidity: 81%

Dew point: 39 °F

Location of PrattelnLocation

Historic Weather in Pratteln — Graph

°F

Pratteln temperature yesterday

Maximum temperature yesterday: 66 °F (at 3:30 PM)
Minimum temperature yesterday: 34 °F (at 6:30 AM)
Average temperature yesterday: 52 °F

Past Weeks' High & Low Weather Summary

 TemperatureHumidityPressure
High79 °F (Apr 15, 4:00 PM)100% (Apr 7, 6:30 AM)30.57 "Hg (Apr 7, 6:30 AM)
Low27 °F (Apr 7, 6:00 AM)20% (Apr 15, 4:30 PM)29.92 "Hg (Apr 16, 7:30 PM)
Average53 °F62%30.25 "Hg
* Reported Apr 6 8:00 AM — Apr 21 8:00 AM, Pratteln, Weather by CustomWeather, © 2015

Note: Actual official high and low records may vary slightly from our data, if they occured in-between our weather recording intervals... More about our weather records

Advertising

Pratteln weather history for previous 24 hours

 ConditionsComfort  
Time TempWeatherWind HumidityBarometerVisibility
8:00 AM
Tue, Apr 21
41 °FSunny.1 mph93%30.33 "Hg10 mi
7:30 AM37 °FSunny.No wind93%30.33 "Hg10 mi
7:00 AM37 °FClear.2 mph93%30.33 "Hg10 mi
6:30 AM36 °FClear.3 mph93%30.30 "Hg10 mi
6:00 AM37 °FClear.2 mph87%30.30 "Hg10 mi
5:30 AM39 °FClear.No wind87%30.30 "Hg10 mi
5:00 AM37 °FClear.2 mph93%30.30 "Hg10 mi
4:30 AM39 °FClear.1 mph81%30.30 "Hg10 mi
4:00 AM39 °FClear.2 mph87%30.30 "HgN/A
3:30 AM41 °FClear.2 mph81%30.27 "HgN/A
3:00 AM41 °FClear.6 mph87%30.30 "HgN/A
2:30 AM41 °FClear.3 mph81%30.30 "HgN/A
2:00 AM43 °FClear.3 mph81%30.30 "HgN/A
1:30 AM41 °FClear.5 mph87%30.30 "HgN/A
1:00 AM41 °FClear.2 mph87%30.27 "HgN/A
12:30 AM45 °FClear.2 mph76%30.27 "HgN/A
12:00 AM48 °FClear.1 mph66%30.27 "Hg10 mi
11:00 PM
Mon, Apr 20
46 °FClear.6 mph71%30.27 "Hg10 mi
10:30 PM52 °FClear.3 mph58%30.27 "Hg10 mi
10:00 PM54 °FClear.2 mph51%30.24 "Hg10 mi
9:30 PM55 °FClear.6 mph47%30.24 "Hg10 mi
9:00 PM55 °FPassing clouds.5 mph47%30.24 "HgN/A
8:30 PM59 °FSunny.7 mph42%30.21 "Hg10 mi
8:00 PM63 °FSunny.9 mph34%30.21 "Hg10 mi
7:30 PM63 °FSunny.10 mph37%30.18 "Hg10 mi
7:00 PM64 °FPassing clouds.10 mph32%30.18 "HgN/A
6:30 PM66 °FPassing clouds.13 mph32%30.18 "HgN/A
6:00 PM66 °FPassing clouds.12 mph32%30.18 "HgN/A
5:30 PM66 °FPassing clouds.12 mph35%30.18 "HgN/A
5:00 PM66 °FPassing clouds.10 mph35%30.18 "HgN/A
4:30 PM66 °FPassing clouds.10 mph37%30.21 "HgN/A
4:00 PM66 °FPassing clouds.9 mph37%30.21 "HgN/A
3:30 PM66 °FPassing clouds.10 mph37%30.21 "HgN/A
3:00 PM64 °FPassing clouds.6 mph40%30.21 "HgN/A
2:30 PM63 °FPassing clouds.5 mph37%30.21 "HgN/A
2:00 PM61 °FPassing clouds.7 mph39%30.21 "HgN/A
1:30 PM61 °FPassing clouds.7 mph39%30.21 "HgN/A
1:00 PM61 °FPassing clouds.6 mph42%30.24 "HgN/A
12:30 PM59 °FPassing clouds.8 mph39%30.24 "HgN/A
12:00 PM59 °FSunny.5 mph42%30.24 "Hg10 mi
11:30 AM57 °FSunny.3 mph51%30.24 "Hg10 mi
11:00 AM55 °FSunny.2 mph47%30.24 "Hg10 mi
10:30 AM54 °FPassing clouds.5 mph54%30.24 "HgN/A
10:00 AM50 °FPassing clouds.3 mph67%30.21 "HgN/A
9:30 AM48 °FPassing clouds.3 mph66%30.21 "HgN/A
9:00 AM46 °FSunny.No wind71%30.21 "Hg10 mi
Weather by CustomWeather, © 2015

See weather overviewHow to use our weather pages